Terug naar catalogus

SL-8 R/B

ActiefPO
NORAD 20805·ROCKET BODY·🇷🇺 Russia

Gelanceerd Sep 14, 1990 vanaf Plesetsk Cosmodrome

Loading…

Volgende Passages (komende 24 uur)

TLE

VersSource: Space-Track

Epoch: Sep 14, 2026, 11:10 UTC

1 20805U 90083B   26257.46527959  .00000152  00000-0  14005-3 0  9995
2 20805  82.9322  73.5364 0029754 322.8619  65.6369 13.76247979807442

Volg SL-8 R/B in realtime met AllMySat

Download on the App Store